CPA462 RCKH-VHHX

Flight info

Callsign CPA462
Flight time 1h 8m
Altitude 34000
Route PARAS2A PARAS T7 WP521 G581 MAGOG
Aircraft B77W/H-SDE1E2E3FGHIJ2J3J4J5M1RWXY/LB1D1

Departure

Time 2026-04-27 21:34
Airport Kaohsiung International Airport (RCKH)

Arrival

Time 2026-04-27 22:43
Airport Hong Kong International Airport Kai Tak (VHHX)
Time Latitude Longitude Altitude Speed Heading
2026-04-27 20:15 22.57264 120.34240 34 ft 0 kts 272°
2026-04-27 21:04 22.57263 120.34247 34 ft 4 kts 272°
2026-04-27 21:04 22.57262 120.34275 34 ft 4 kts 272°
2026-04-27 21:05 22.57261 120.34304 31 ft 4 kts 266°
2026-04-27 21:05 22.57253 120.34329 32 ft 4 kts 353°
2026-04-27 21:05 22.57252 120.34329 32 ft 0 kts 359°
2026-04-27 21:22 22.57257 120.34329 35 ft 1 kts 359°
2026-04-27 21:23 22.57267 120.34329 35 ft 2 kts 359°
2026-04-27 21:23 22.57268 120.34329 35 ft 0 kts 359°
2026-04-27 21:23 22.57269 120.34329 35 ft 1 kts 359°
2026-04-27 21:23 22.57288 120.34329 35 ft 1 kts 359°
2026-04-27 21:24 22.57313 120.34328 35 ft 7 kts 359°
2026-04-27 21:24 22.57352 120.34328 35 ft 4 kts 359°
2026-04-27 21:24 22.57386 120.34324 35 ft 5 kts 349°
2026-04-27 21:24 22.57406 120.34292 35 ft 6 kts 275°
2026-04-27 21:25 22.57406 120.34287 35 ft 1 kts 273°
2026-04-27 21:25 22.57407 120.34274 35 ft 2 kts 273°
2026-04-27 21:25 22.57408 120.34251 35 ft 4 kts 272°
2026-04-27 21:25 22.57409 120.34216 34 ft 5 kts 271°
2026-04-27 21:26 22.57409 120.34172 34 ft 6 kts 271°
2026-04-27 21:26 22.57410 120.34120 34 ft 7 kts 271°
2026-04-27 21:26 22.57411 120.34061 34 ft 8 kts 270°
2026-04-27 21:26 22.57413 120.33994 33 ft 9 kts 273°
2026-04-27 21:27 22.57416 120.33921 33 ft 10 kts 273°
2026-04-27 21:27 22.57419 120.33844 33 ft 8 kts 271°
2026-04-27 21:27 22.57420 120.33778 33 ft 9 kts 271°
2026-04-27 21:27 22.57422 120.33727 32 ft 5 kts 277°
2026-04-27 21:28 22.57438 120.33688 32 ft 6 kts 302°
2026-04-27 21:28 22.57471 120.33648 32 ft 9 kts 315°
2026-04-27 21:28 22.57520 120.33598 32 ft 10 kts 317°
2026-04-27 21:28 22.57555 120.33562 32 ft 7 kts 317°
2026-04-27 21:29 22.57558 120.33560 32 ft 0 kts 317°
2026-04-27 21:29 22.57567 120.33551 31 ft 3 kts 317°
2026-04-27 21:29 22.57586 120.33532 31 ft 4 kts 317°
2026-04-27 21:30 22.57616 120.33513 31 ft 6 kts 339°
2026-04-27 21:30 22.57640 120.33507 31 ft 1 kts 351°
2026-04-27 21:30 22.57642 120.33507 31 ft 0 kts 351°
2026-04-27 21:32 22.57662 120.33505 31 ft 14 kts 355°
2026-04-27 21:32 22.57740 120.33542 31 ft 13 kts 61°
2026-04-27 21:32 22.57750 120.33605 31 ft 0 kts 89°
2026-04-27 21:33 22.57750 120.33607 31 ft 0 kts 89°
2026-04-27 21:33 22.57750 120.33610 31 ft 1 kts 89°
2026-04-27 21:33 22.57750 120.33616 31 ft 1 kts 89°
2026-04-27 21:33 22.57747 120.33738 32 ft 51 kts 92°
2026-04-27 21:34 22.57726 120.34438 36 ft 133 kts 91°
2026-04-27 21:34 22.57687 120.35662 199 ft 180 kts 92°
2026-04-27 21:34 22.57624 120.37019 961 ft 185 kts 94°
2026-04-27 21:34 22.57147 120.38293 1648 ft 193 kts 136°
2026-04-27 21:35 22.55907 120.38843 2178 ft 206 kts 178°
2026-04-27 21:35 22.54463 120.38427 2530 ft 232 kts 212°
2026-04-27 21:35 22.53211 120.37246 3077 ft 246 kts 222°
2026-04-27 21:35 22.51907 120.35943 3695 ft 261 kts 220°
2026-04-27 21:36 22.50537 120.34620 4587 ft 266 kts 220°
2026-04-27 21:36 22.49144 120.33283 5519 ft 269 kts 219°
2026-04-27 21:36 22.47744 120.31943 6398 ft 271 kts 219°
2026-04-27 21:36 22.46329 120.30590 6869 ft 273 kts 220°
2026-04-27 21:37 22.44892 120.29218 6939 ft 278 kts 220°
2026-04-27 21:37 22.43445 120.27837 6954 ft 277 kts 220°
2026-04-27 21:37 22.42007 120.26466 6938 ft 274 kts 219°
2026-04-27 21:37 22.40577 120.25104 6952 ft 274 kts 219°
2026-04-27 21:38 22.39147 120.23742 6952 ft 275 kts 219°
2026-04-27 21:38 22.37711 120.22376 6953 ft 275 kts 219°
2026-04-27 21:38 22.36272 120.21007 6952 ft 276 kts 220°
2026-04-27 21:38 22.34830 120.19635 6950 ft 276 kts 219°
2026-04-27 21:39 22.33873 120.18725 6952 ft 277 kts 219°
2026-04-27 21:39 22.32429 120.17352 6950 ft 277 kts 219°
2026-04-27 21:39 22.30987 120.15983 6951 ft 276 kts 219°
2026-04-27 21:39 22.29693 120.14476 6925 ft 274 kts 238°
2026-04-27 21:40 22.29044 120.12550 6952 ft 276 kts 255°
2026-04-27 21:40 22.28631 120.10502 6962 ft 283 kts 255°
2026-04-27 21:40 22.28203 120.08423 6954 ft 284 kts 255°
2026-04-27 21:40 22.27770 120.06351 6931 ft 282 kts 255°
2026-04-27 21:41 22.27335 120.04296 6937 ft 280 kts 255°
2026-04-27 21:41 22.26901 120.02254 6937 ft 278 kts 255°
2026-04-27 21:41 22.26467 120.00218 6996 ft 279 kts 255°
2026-04-27 21:41 22.26044 119.98234 7630 ft 281 kts 255°
2026-04-27 21:42 22.25603 119.96173 8555 ft 282 kts 255°
2026-04-27 21:42 22.25163 119.94109 9535 ft 283 kts 255°
2026-04-27 21:42 22.24719 119.92032 10344 ft 287 kts 255°
2026-04-27 21:42 22.24255 119.89869 10800 ft 309 kts 256°
2026-04-27 21:43 22.23748 119.87504 11013 ft 338 kts 256°
2026-04-27 21:43 22.23197 119.84934 11274 ft 364 kts 256°
2026-04-27 21:43 22.22618 119.82225 11985 ft 374 kts 256°
2026-04-27 21:43 22.22032 119.79479 12988 ft 378 kts 256°
2026-04-27 21:44 22.21436 119.76699 13967 ft 382 kts 256°
2026-04-27 21:44 22.20830 119.73879 14834 ft 387 kts 256°
2026-04-27 21:44 22.20212 119.71038 15661 ft 392 kts 256°
2026-04-27 21:44 22.19581 119.68162 16495 ft 396 kts 256°
2026-04-27 21:45 22.18943 119.65258 17329 ft 401 kts 256°
2026-04-27 21:45 22.18296 119.62306 18157 ft 406 kts 256°
2026-04-27 21:45 22.17644 119.59335 18890 ft 410 kts 256°
2026-04-27 21:45 22.16984 119.56329 19625 ft 413 kts 256°
2026-04-27 21:46 22.16367 119.53295 20368 ft 416 kts 259°
2026-04-27 21:46 22.15997 119.50187 21105 ft 420 kts 265°
2026-04-27 21:46 22.15899 119.47037 21826 ft 423 kts 268°
2026-04-27 21:46 22.15833 119.43849 22528 ft 427 kts 268°
2026-04-27 21:47 22.15766 119.40635 23216 ft 431 kts 268°
2026-04-27 21:47 22.15691 119.37384 23816 ft 434 kts 268°
2026-04-27 21:47 22.15608 119.34122 24356 ft 438 kts 267°
2026-04-27 21:47 22.15520 119.30828 24901 ft 441 kts 267°
2026-04-27 21:48 22.15428 119.27508 25413 ft 445 kts 267°
2026-04-27 21:48 22.15334 119.24162 25924 ft 448 kts 267°
2026-04-27 21:48 22.15239 119.20792 26449 ft 451 kts 267°
2026-04-27 21:48 22.15144 119.17400 26958 ft 454 kts 267°
2026-04-27 21:49 22.15048 119.14029 27439 ft 457 kts 267°
2026-04-27 21:49 22.14963 119.10586 27929 ft 461 kts 269°
2026-04-27 21:49 22.15076 119.07119 28380 ft 465 kts 274°
2026-04-27 21:49 22.15499 119.03649 28812 ft 468 kts 277°
2026-04-27 21:50 22.15979 119.00163 29222 ft 471 kts 277°
2026-04-27 21:50 22.16423 118.96762 29601 ft 474 kts 276°
2026-04-27 21:50 22.16858 118.93228 29980 ft 476 kts 276°
2026-04-27 21:50 22.17280 118.89684 30320 ft 478 kts 276°
2026-04-27 21:51 22.17699 118.86134 30767 ft 476 kts 276°
2026-04-27 21:51 22.18117 118.82602 31261 ft 473 kts 277°
2026-04-27 21:51 22.18533 118.79091 31776 ft 470 kts 277°
2026-04-27 21:51 22.18948 118.75597 32251 ft 469 kts 277°
2026-04-27 21:52 22.19362 118.72115 32706 ft 467 kts 277°
2026-04-27 21:52 22.19775 118.68642 33161 ft 466 kts 277°
2026-04-27 21:52 22.20185 118.65182 33622 ft 464 kts 278°
2026-04-27 21:52 22.20595 118.61719 33875 ft 467 kts 278°
2026-04-27 21:53 22.21422 118.54723 33931 ft 469 kts 278°
2026-04-27 21:53 22.22234 118.47786 33936 ft 464 kts 278°
2026-04-27 21:54 22.23031 118.40917 33927 ft 454 kts 278°
2026-04-27 21:54 22.23416 118.37584 33920 ft 442 kts 278°
2026-04-27 21:54 22.23796 118.34299 33927 ft 442 kts 278°
2026-04-27 21:55 22.24558 118.27705 33944 ft 443 kts 278°
2026-04-27 21:55 22.25320 118.21082 33944 ft 444 kts 278°
2026-04-27 21:56 22.26451 118.11149 33937 ft 444 kts 278°
2026-04-27 21:57 22.27152 118.04529 33939 ft 444 kts 278°
2026-04-27 21:57 22.27851 117.98005 33941 ft 443 kts 278°
2026-04-27 21:58 22.28606 117.91417 33935 ft 442 kts 278°
2026-04-27 21:58 22.29365 117.84849 33938 ft 441 kts 278°
2026-04-27 21:59 22.30116 117.78272 33940 ft 441 kts 278°
2026-04-27 21:59 22.30862 117.71695 33940 ft 441 kts 278°
2026-04-27 22:00 22.31605 117.65108 33937 ft 441 kts 278°
2026-04-27 22:00 22.32344 117.58533 33936 ft 439 kts 278°
2026-04-27 22:01 22.33066 117.52082 33930 ft 429 kts 278°
2026-04-27 22:01 22.33271 117.45629 33947 ft 431 kts 270°
2026-04-27 22:02 22.33125 117.39189 33947 ft 433 kts 271°
2026-04-27 22:02 22.32997 117.32681 33943 ft 434 kts 271°
2026-04-27 22:03 22.32875 117.26161 33938 ft 434 kts 271°
2026-04-27 22:03 22.32754 117.19647 33938 ft 433 kts 271°
2026-04-27 22:04 22.32631 117.13141 33940 ft 432 kts 270°
2026-04-27 22:04 22.32506 117.06659 33939 ft 431 kts 270°
2026-04-27 22:05 22.32378 117.00189 33938 ft 430 kts 270°
2026-04-27 22:05 22.32249 116.93843 33936 ft 429 kts 270°
2026-04-27 22:06 22.32117 116.87417 33936 ft 427 kts 270°
2026-04-27 22:06 22.31984 116.81030 33923 ft 424 kts 270°
2026-04-27 22:07 22.31847 116.74665 33934 ft 423 kts 270°
2026-04-27 22:07 22.31709 116.68326 33941 ft 422 kts 270°
2026-04-27 22:08 22.31569 116.62000 33943 ft 422 kts 270°
2026-04-27 22:08 22.31426 116.55653 33944 ft 423 kts 269°
2026-04-27 22:09 22.31281 116.49300 33939 ft 424 kts 269°
2026-04-27 22:09 22.31132 116.42938 33935 ft 424 kts 269°
2026-04-27 22:10 22.30981 116.36575 33934 ft 424 kts 269°
2026-04-27 22:10 22.30828 116.30217 33934 ft 423 kts 269°
2026-04-27 22:11 22.30673 116.23869 33938 ft 423 kts 269°
2026-04-27 22:11 22.30515 116.17530 33928 ft 422 kts 269°
2026-04-27 22:12 22.30355 116.11195 33930 ft 421 kts 269°
2026-04-27 22:12 22.30193 116.04892 33928 ft 420 kts 269°
2026-04-27 22:13 22.30032 115.98683 33934 ft 420 kts 269°
2026-04-27 22:13 22.29866 115.92390 33934 ft 419 kts 269°
2026-04-27 22:14 22.29698 115.86111 33926 ft 419 kts 269°
2026-04-27 22:14 22.29518 115.79862 33929 ft 419 kts 269°
2026-04-27 22:15 22.29286 115.73574 33926 ft 419 kts 269°
2026-04-27 22:15 22.29051 115.67295 33932 ft 419 kts 269°
2026-04-27 22:16 22.28817 115.61006 33937 ft 419 kts 268°
2026-04-27 22:16 22.28581 115.54733 33929 ft 418 kts 268°
2026-04-27 22:17 22.28343 115.48492 33348 ft 415 kts 268°
2026-04-27 22:17 22.28222 115.45345 32330 ft 423 kts 268°
2026-04-27 22:17 22.28099 115.42146 31395 ft 428 kts 268°
2026-04-27 22:17 22.27974 115.38919 30550 ft 432 kts 268°
2026-04-27 22:18 22.27846 115.35630 29882 ft 448 kts 268°
2026-04-27 22:18 22.27714 115.32244 29100 ft 452 kts 268°
2026-04-27 22:18 22.27581 115.28864 28335 ft 451 kts 268°
2026-04-27 22:18 22.27446 115.25462 27774 ft 458 kts 268°
2026-04-27 22:19 22.27309 115.22037 27485 ft 455 kts 268°
2026-04-27 22:19 22.27173 115.18633 26784 ft 453 kts 268°
2026-04-27 22:19 22.27037 115.15259 26219 ft 447 kts 268°
2026-04-27 22:19 22.26753 115.11962 25781 ft 438 kts 262°
2026-04-27 22:20 22.26197 115.08811 25465 ft 414 kts 258°
2026-04-27 22:20 22.25588 115.05876 25342 ft 389 kts 258°
2026-04-27 22:20 22.25020 115.03099 25208 ft 369 kts 259°
2026-04-27 22:20 22.24511 115.00449 24966 ft 354 kts 259°
2026-04-27 22:21 22.24053 114.97944 24671 ft 344 kts 260°
2026-04-27 22:21 22.23604 114.95448 24370 ft 333 kts 260°
2026-04-27 22:21 22.23177 114.93019 23992 ft 328 kts 262°
2026-04-27 22:21 22.22978 114.90563 23267 ft 329 kts 269°
2026-04-27 22:22 22.22960 114.88105 22477 ft 326 kts 270°
2026-04-27 22:22 22.22979 114.85664 21721 ft 329 kts 270°
2026-04-27 22:22 22.22994 114.83177 20991 ft 332 kts 270°
2026-04-27 22:22 22.22994 114.80695 20249 ft 329 kts 269°
2026-04-27 22:23 22.22982 114.78240 19548 ft 326 kts 269°
2026-04-27 22:23 22.22963 114.75829 19045 ft 316 kts 269°
2026-04-27 22:23 22.22939 114.73519 18656 ft 302 kts 269°
2026-04-27 22:23 22.22915 114.71284 18183 ft 294 kts 268°
2026-04-27 22:24 22.22889 114.69087 17677 ft 292 kts 268°
2026-04-27 22:24 22.22871 114.67630 17345 ft 294 kts 268°
2026-04-27 22:24 22.22843 114.65417 16850 ft 296 kts 268°
2026-04-27 22:24 22.22816 114.63193 16359 ft 296 kts 268°
2026-04-27 22:25 22.22789 114.60988 15872 ft 293 kts 268°
2026-04-27 22:25 22.22761 114.58795 15396 ft 291 kts 268°
2026-04-27 22:25 22.22733 114.56613 14920 ft 289 kts 268°
2026-04-27 22:25 22.22705 114.54450 14461 ft 287 kts 268°
2026-04-27 22:26 22.22677 114.52301 14010 ft 286 kts 268°
2026-04-27 22:26 22.22648 114.50160 13536 ft 284 kts 268°
2026-04-27 22:26 22.22620 114.48035 13057 ft 284 kts 268°
2026-04-27 22:26 22.22591 114.45905 12695 ft 281 kts 268°
2026-04-27 22:27 22.22564 114.43834 12298 ft 272 kts 268°
2026-04-27 22:27 22.22536 114.41817 11925 ft 265 kts 267°
2026-04-27 22:27 22.22509 114.39845 11558 ft 262 kts 267°
2026-04-27 22:27 22.22481 114.37876 11200 ft 263 kts 267°
2026-04-27 22:28 22.22453 114.35903 10851 ft 262 kts 267°
2026-04-27 22:28 22.22425 114.33937 10503 ft 262 kts 267°
2026-04-27 22:28 22.22397 114.31966 10154 ft 262 kts 267°
2026-04-27 22:28 22.22368 114.30002 9812 ft 262 kts 267°
2026-04-27 22:29 22.22339 114.28039 9431 ft 261 kts 267°
2026-04-27 22:29 22.22311 114.26084 9054 ft 261 kts 267°
2026-04-27 22:29 22.22282 114.24128 8665 ft 260 kts 267°
2026-04-27 22:29 22.22253 114.22180 8302 ft 259 kts 267°
2026-04-27 22:30 22.22224 114.20241 8030 ft 257 kts 267°
2026-04-27 22:30 22.22194 114.18315 8009 ft 256 kts 267°
2026-04-27 22:30 22.22165 114.16395 7960 ft 257 kts 266°
2026-04-27 22:30 22.22136 114.14477 7650 ft 252 kts 266°
2026-04-27 22:31 22.22108 114.12654 7302 ft 234 kts 266°
2026-04-27 22:31 22.22083 114.10946 6924 ft 221 kts 266°
2026-04-27 22:31 22.22058 114.09309 6546 ft 217 kts 266°
2026-04-27 22:31 22.22031 114.07688 6197 ft 214 kts 266°
2026-04-27 22:32 22.22007 114.06134 5996 ft 199 kts 266°
2026-04-27 22:32 22.21984 114.04660 6006 ft 197 kts 266°
2026-04-27 22:32 22.21959 114.03187 5996 ft 196 kts 266°
2026-04-27 22:32 22.21917 114.01713 6000 ft 196 kts 265°
2026-04-27 22:33 22.21868 114.00243 6006 ft 196 kts 265°
2026-04-27 22:33 22.21820 113.98805 6007 ft 197 kts 265°
2026-04-27 22:33 22.21772 113.97329 6002 ft 197 kts 265°
2026-04-27 22:33 22.21721 113.95833 6015 ft 203 kts 265°
2026-04-27 22:34 22.21671 113.94319 5999 ft 199 kts 265°
2026-04-27 22:34 22.21622 113.92844 5993 ft 195 kts 266°
2026-04-27 22:34 22.21574 113.91390 5986 ft 193 kts 265°
2026-04-27 22:34 22.21571 113.89940 5990 ft 195 kts 276°
2026-04-27 22:35 22.22191 113.88650 5996 ft 199 kts 314°
2026-04-27 22:35 22.23411 113.87967 6004 ft 201 kts 348°
2026-04-27 22:35 22.24789 113.88077 5986 ft 200 kts 23°
2026-04-27 22:35 22.26004 113.88793 6041 ft 201 kts 30°
2026-04-27 22:36 22.27242 113.89551 5909 ft 207 kts 30°
2026-04-27 22:36 22.28513 113.90325 5477 ft 212 kts 30°
2026-04-27 22:36 22.29720 113.91216 5035 ft 214 kts 42°
2026-04-27 22:36 22.30815 113.92311 4594 ft 216 kts 47°
2026-04-27 22:37 22.31583 113.93664 4111 ft 211 kts 78°
2026-04-27 22:37 22.31791 113.95191 3839 ft 202 kts 89°
2026-04-27 22:37 22.31890 113.96688 3534 ft 198 kts 90°
2026-04-27 22:37 22.31977 113.98154 3246 ft 194 kts 90°
2026-04-27 22:38 22.32064 113.99591 2949 ft 190 kts 90°
2026-04-27 22:38 22.32148 114.00997 2611 ft 184 kts 88°
2026-04-27 22:38 22.32238 114.02346 2293 ft 174 kts 89°
2026-04-27 22:38 22.32321 114.03633 2118 ft 173 kts 88°
2026-04-27 22:39 22.32402 114.04910 1979 ft 167 kts 89°
2026-04-27 22:39 22.32483 114.06171 1899 ft 169 kts 88°
2026-04-27 22:39 22.32565 114.07416 1892 ft 163 kts 88°
2026-04-27 22:39 22.32645 114.08637 1902 ft 164 kts 88°
2026-04-27 22:40 22.32725 114.09871 1896 ft 167 kts 87°
2026-04-27 22:40 22.32808 114.11148 1640 ft 171 kts 87°
2026-04-27 22:40 22.32913 114.12401 1333 ft 162 kts 85°
2026-04-27 22:40 22.33029 114.13573 1101 ft 150 kts 85°
2026-04-27 22:41 22.33116 114.14692 1018 ft 153 kts 86°
2026-04-27 22:41 22.33208 114.15842 1016 ft 155 kts 86°
2026-04-27 22:41 22.33290 114.17014 812 ft 157 kts 88°
2026-04-27 22:41 22.33154 114.18134 591 ft 147 kts 108°
2026-04-27 22:42 22.32691 114.19068 254 ft 140 kts 128°
2026-04-27 22:42 22.32033 114.19809 40 ft 132 kts 132°
2026-04-27 22:42 22.31485 114.20423 38 ft 88 kts 134°
2026-04-27 22:42 22.31169 114.20776 38 ft 54 kts 134°
2026-04-27 22:43 22.30980 114.20987 38 ft 17 kts 132°
2026-04-27 22:43 22.30985 114.21078 38 ft 13 kts 37°
2026-04-27 22:43 22.31066 114.21041 38 ft 14 kts 319°
2026-04-27 22:43 22.31135 114.20970 38 ft 14 kts 315°
2026-04-27 22:44 22.31202 114.20892 38 ft 15 kts 313°
2026-04-27 22:44 22.31278 114.20806 38 ft 17 kts 314°
2026-04-27 22:44 22.31361 114.20716 38 ft 17 kts 314°
2026-04-27 22:44 22.31448 114.20619 38 ft 19 kts 314°
2026-04-27 22:45 22.31542 114.20516 38 ft 20 kts 315°
2026-04-27 22:45 22.31638 114.20406 38 ft 20 kts 313°
2026-04-27 22:45 22.31738 114.20292 38 ft 21 kts 314°
2026-04-27 22:45 22.31841 114.20180 38 ft 21 kts 315°
2026-04-27 22:46 22.31941 114.20066 38 ft 21 kts 314°
2026-04-27 22:46 22.32043 114.19953 38 ft 21 kts 314°
2026-04-27 22:46 22.32145 114.19841 38 ft 21 kts 315°
2026-04-27 22:46 22.32238 114.19737 38 ft 16 kts 314°
2026-04-27 22:47 22.32318 114.19648 38 ft 17 kts 316°
2026-04-27 22:47 22.32430 114.19536 38 ft 25 kts 317°
2026-04-27 22:47 22.32535 114.19438 38 ft 17 kts 334°
2026-04-27 22:47 22.32659 114.19475 38 ft 17 kts 39°
2026-04-27 22:48 22.32761 114.19578 38 ft 7 kts 41°
2026-04-27 22:48 22.32814 114.19578 38 ft 4 kts 308°
2026-04-27 22:48 22.32834 114.19551 36 ft 5 kts 312°
2026-04-27 22:48 22.32844 114.19540 38 ft 0 kts 313°